SCP
0 0 0 0 0 0 0 0 0 0 0 0 0 0 0 0 0 0 0 0 0 0 0 0 0 0 0 0 0 0 0 0 1 1 0 0 0 0 1 0 0 0 0 0
0 0 0 0 0 0 0 0 0 0 0 0 0 0 0 0 0 0 0 0 0 0 0 0 1 0 0 0 0 0 0 0 1 1 0 0 0 0 0 0 0 0 0 0
0 0 0 0 0 0 0 0 0 0 0 0 0 0 0 0 0 0 0 0 0 0 0 0 0 0 0 0 0 0 0 0 0 0 0 0 0 0 0 0 0 0 0 0
0 0 0 0 0 0 0 0 0 0 0 0 0 0 0 0 0 0 0 0 0 0 0 0 0 0 0 0 0 0 0 0 0 0 0 0 0 0 0 0 0 0 0 0
0 0 0 0 0 0 0 0 0 0 0 0 0 0 0 0 0 0 0 0 0 0 0 0 0 0 0 0 0 0 0 0 0 0 0 0 0 0 0 0 0 0 0 0
0 0 0 0 0 0 0 0 0 0 0 0 0 0 0 0 0 0 0 0 0 0 0 0 0 0 0 0 1 1 0 0 0 0 0 0 0 0 0 0 0 0 0 0
0 0 0 0 0 0 0 0 0 0 0 0 0 0 0 0 0 0 0 0 0 0 0 0 0 0 0 0 0 0 0 0 0 0 0 0 0 0 0 0 0 0 0 0
0 0 0 0 0 0 0 0 0 0 0 0 0 0 0 0 0 0 0 0 0 0 0 0 0 0 0 0 0 0 0 0 0 0 0 0 0 0 0 0 0 0 0 0
0 0 0 0 0 0 0 0 0 0 0 0 0 0 0 0 0 0 0 0 0 0 0 0 0 0 0 0 0 0 0 0 0 0 0 0 0 0 0 0 0 0 0 0
0 0 0 0 0 0 0 0 0 0 0 0 0 0 0 0 0 0 0 0 0 0 0 0 0 0 0 0 0 0 0 0 0 0 0 0 0 0 0 0 0 0 0 0
0 0 0 0 0 0 0 0 0 0 0 0 0 0 0 0 0 0 0 0 0 0 0 0 0 0 0 0 0 0 0 0 0 0 0 0 0 0 0 0 0 0 0 0
0 0 0 0 0 0 0 0 0 0 0 0 0 0 0 0 0 0 0 0 0 0 0 0 0 0 0 0 0 0 0 0 0 0 0 0 0 0 0 0 0 0 0 0
0 0 0 0 0 0 0 0 0 0 0 0 0 0 0 0 0 0 0 0 0 0 0 0 0 0 0 0 0 0 0 0 0 0 0 0 0 0 0 0 0 0 0 0
0 0 0 0 0 0 0 0 0 0 0 0 0 0 0 0 0 0 0 0 0 0 -0 0 0 0 0 0 0 0 0 0 0 0 0 0 0 0 0 0 0 0 0 0
0 0 0 0 0 0 0 0 0 0 0 0 0 0 -0 0 0 0 0 -0 0 -0 -0 0 0 0 0 0 0 0 0 0 0 0 0 0 0 0 0 0 0 0 0 0
0 0 0 0 0 0 0 0 0 0 0 0 0 0 0 0 0 0 0 -0 0 0 0 0 0 0 0 0 0 0 0 0 0 0 0 0 0 0 0 0 0 0 0 0
0 0 0 0 0 0 0 0 0 0 0 0 0 0 0 0 0 0 0 -0 -0 0 0 0 0 0 0 0 0 0 0 0 0 0 0 0 0 0 0 0 0 0 0 0
0 0 0 0 0 0 0 0 0 0 0 0 0 0 0 0 -0 -0 0 0 -0 0 0 0 0 0 0 0 0 0 0 0 0 0 0 0 0 0 0 0 0 0 0 0
0 0 0 0 0 0 0 0 0 0 0 0 0 0 -0 -0 -0 0 0 0 0 0 0 0 0 0 0 0 0 0 0 0 0 0 0 0 0 0 0 0 0 0 0 0
0 0 0 0 0 0 0 0 0 0 0 0 0 -0 -0 0 0 0 0 0 0 0 0 0 0 0 0 0 0 0 0 0 0 0 0 0 0 0 0 0 0 0 0 0
0 0 0 0 0 0 0 0 0 0 0 0 0 0 0 0 0 0 0 0 0 0 0 0 0 0 0 0 0 0 0 0 0 0 0 0 0 0 0 0 0 0 0 0
0 0 0 0 0 0 0 0 0 0 0 0 0 0 0 0 0 0 0 0 0 0 0 0 0 0 0 0 0 0 0 0 0 0 0 0 0 0 0 0 0 0 0 0
0 0 0 0 0 0 0 0 0 0 0 0 0 0 0 0 0 0 0 0 0 0 0 0 0 0 0 0 0 0 0 0 0 0 0 0 0 0 0 0 0 0 0 0
0 0 0 0 0 0 -0 0 0 0 0 0 0 0 0 -0 0 0 0 0 0 0 0 0 0 0 0 0 0 0 0 0 0 0 0 0 0 0 0 0 0 0 0 0
0 0 0 -0 -0 -0 0 0 0 0 0 0 0 0 0 -0 -0 0 0 0 0 0 0 0 0 0 0 0 0 0 0 0 0 0 0 0 0 0 0 0 0 0 0 -0
0 0 0 0 0 0 0 0 0 0 0 0 -0 -0 -0 -0 -0 0 0 0 0 0 0 0 0 0 0 0 0 0 0 0 0 0 0 0 0 0 0 0 0 0 0 -0
Wind_Speed_500mb
42 22 45 42 34 15 12 13 10 9 14 11 12 11 21 26 25 18 33 30 37 39 44 67 63 68 79 71 65 63 59 52 57 70 76 69 74 71 67 66 57 74 75 72
18 55 33 31 31 32 30 21 10 8 10 6 14 18 20 14 12 29 45 44 43 46 48 57 62 59 65 63 61 63 60 59 60 68 69 71 71 60 54 53 64 79 85 81
48 10 36 34 39 38 35 28 12 11 8 3 3 17 10 15 13 32 41 53 49 51 53 64 69 65 60 59 59 59 64 58 51 51 62 70 65 61 61 66 69 78 81 84
32 43 49 49 43 32 39 19 16 17 4 4 7 9 12 11 13 3 30 42 53 50 46 60 73 71 69 69 65 64 64 65 67 70 68 62 52 57 49 55 64 70 74 75
29 39 40 47 48 30 24 25 21 18 10 1 3 4 14 7 8 7 9 22 36 41 52 59 69 70 72 75 75 69 63 57 55 52 52 53 53 48 29 27 26 27 36 27
33 43 41 29 34 39 14 14 14 6 9 9 11 13 12 3 10 6 8 26 18 9 19 32 54 68 79 81 78 64 57 46 41 39 41 41 40 36 32 29 29 32 33 43
39 36 35 39 33 29 30 19 5 4 7 10 18 10 4 15 15 8 16 29 24 16 13 17 34 54 66 62 62 57 48 37 25 22 24 21 20 19 16 20 31 28 31 32
25 34 34 32 30 15 36 19 11 11 10 9 14 11 4 8 8 29 45 42 37 36 36 38 35 46 54 53 51 47 42 37 28 23 18 11 10 11 5 9 19 20 28 33
15 11 32 28 16 38 20 26 19 8 2 11 11 6 8 9 20 27 36 48 45 50 55 58 55 58 60 58 53 46 41 38 29 20 15 10 8 9 9 13 14 19 19 14
7 8 16 45 37 26 20 20 13 4 8 8 2 7 10 5 15 18 21 36 46 61 73 74 74 70 63 55 47 38 33 28 24 19 16 13 8 2 4 8 15 23 19 19
10 4 6 14 14 43 16 16 9 13 5 10 8 5 9 8 8 25 20 39 56 63 60 59 60 58 55 50 47 44 39 36 32 25 18 12 10 11 12 9 9 9 14 21
15 5 7 10 11 27 11 13 12 10 7 6 9 4 2 8 7 18 31 53 62 66 66 66 63 63 59 55 47 42 36 30 26 19 14 12 9 10 8 12 12 18 24 32
22 7 9 7 7 2 10 10 12 12 7 9 11 7 5 11 9 22 41 48 59 66 68 69 64 56 48 43 36 29 23 19 17 16 15 14 10 10 12 19 25 28 34 38
20 6 7 10 14 9 10 12 23 14 9 10 6 19 15 18 17 17 40 55 58 69 67 62 55 47 41 35 28 22 17 17 18 15 14 14 15 17 20 24 29 33 36 38
6 8 1 11 13 8 8 22 19 12 16 13 17 26 31 24 16 19 49 55 60 55 60 53 46 39 31 26 22 21 21 18 15 15 15 15 17 22 28 34 39 42 39 36
10 6 3 9 15 13 9 15 26 10 14 21 34 19 19 28 28 41 47 51 52 49 51 43 35 27 20 17 12 11 10 14 20 25 25 23 25 29 34 38 41 40 37 34
6 5 7 2 8 13 8 5 12 10 5 39 15 19 33 26 29 37 49 50 47 42 41 36 28 22 17 13 12 13 16 21 25 26 27 29 31 33 35 34 30 28 29 35
7 4 4 10 11 5 4 8 13 31 14 32 43 38 38 48 57 51 43 56 47 38 30 24 17 12 11 13 16 19 22 27 29 28 28 28 28 26 26 23 20 23 26 26
3 6 6 9 5 8 11 10 4 23 18 17 49 45 57 68 72 46 35 39 39 29 21 15 10 11 14 18 23 28 32 32 29 26 23 18 15 18 20 11 15 21 21 22
13 9 1 5 10 7 4 12 47 22 10 9 37 42 47 52 14 7 20 28 27 18 11 7 12 17 21 26 30 32 29 24 19 16 10 6 9 11 7 9 13 13 16 23
9 5 7 9 7 7 12 24 10 7 15 33 37 36 24 10 23 45 28 23 14 11 11 15 20 27 32 31 27 22 20 17 17 16 12 8 8 11 2 5 5 11 16 24
6 6 5 6 7 9 2 14 7 27 40 54 40 55 70 63 52 38 23 14 8 11 16 22 25 26 26 24 22 20 20 18 18 15 13 10 8 9 6 1 4 8 16 23
5 2 8 11 4 6 41 47 50 68 63 50 61 58 66 59 42 28 20 14 14 17 19 21 23 24 24 23 21 22 21 19 18 15 13 10 9 5 9 2 5 8 16 22
9 4 12 8 18 34 60 59 63 68 74 65 62 56 46 48 33 27 23 23 23 23 25 24 24 25 26 25 23 22 22 21 23 14 10 8 6 7 9 1 4 11 12 19
5 9 18 36 32 61 53 63 78 72 69 66 57 50 47 41 36 30 29 27 26 26 26 25 24 23 22 22 19 19 22 23 19 12 7 6 4 8 6 3 5 11 10 14
13 11 8 16 28 51 40 51 67 74 66 60 60 54 43 37 39 32 31 26 24 23 21 20 19 20 19 18 18 18 25 24 20 16 10 2 2 6 7 7 6 1 3 11
Wind_Direction_500mb
185 199 207 196 201 184 218 226 210 190 239 201 244 231 256 260 250 236 239 227 215 212 220 211 214 218 221 227 229 229 230 226 221 219 221 229 226 236 254 239 230 227 236 240
168 218 201 198 197 206 229 237 213 269 264 175 278 268 257 261 233 235 243 238 219 213 209 211 215 220 216 215 218 219 223 226 225 226 235 235 243 257 246 234 239 242 241 235
200 211 191 199 199 202 213 216 167 200 11 275 356 305 295 274 225 242 253 253 248 215 211 209 210 212 219 221 216 212 216 220 224 229 237 240 246 249 250 250 252 250 244 247
221 232 187 193 211 191 213 177 193 233 123 217 115 271 304 260 230 208 249 255 255 245 222 213 212 212 217 213 215 208 215 222 226 229 230 230 239 252 262 267 262 261 264 266
200 184 209 203 202 201 210 178 195 222 176 304 244 42 271 301 116 204 250 252 249 248 242 224 210 216 219 213 209 210 210 214 219 223 226 235 237 238 234 252 264 263 246 268
207 185 204 211 203 201 137 161 200 169 117 241 205 159 281 357 314 201 85 37 21 304 256 227 216 216 213 212 208 207 210 215 214 215 219 223 235 230 231 257 274 274 257 247
197 217 193 187 188 191 177 155 174 195 191 211 157 151 240 309 304 310 98 65 60 70 98 141 177 197 202 197 202 203 207 201 196 198 206 212 226 245 255 260 281 272 266 252
193 208 208 187 202 169 190 154 163 170 152 158 143 198 247 311 21 75 90 92 91 94 106 111 127 154 164 166 169 173 173 168 170 172 169 159 140 118 89 344 318 311 274 259
159 240 193 213 188 170 186 197 200 66 286 110 145 114 106 49 52 62 74 82 85 102 107 109 117 123 128 128 128 134 138 131 123 104 84 65 47 51 33 327 283 243 236 229
174 162 229 204 216 236 167 167 178 120 178 126 156 128 147 101 91 87 84 91 94 104 105 106 107 108 110 112 113 116 119 118 112 113 103 94 99 117 238 224 235 237 256 264
198 145 224 186 157 206 205 186 163 136 148 148 133 187 167 169 152 129 121 113 113 110 107 108 109 109 109 111 109 104 102 101 97 93 87 78 49 28 4 329 287 283 277 284
189 165 134 158 110 175 145 198 157 155 210 55 116 231 99 153 132 134 123 123 119 118 118 119 117 116 112 108 106 101 96 90 85 78 60 44 22 357 323 311 305 303 303 301
173 212 99 91 79 121 149 188 136 112 108 173 118 184 154 135 138 125 126 124 119 121 123 119 117 113 111 108 103 95 86 74 54 29 10 360 347 337 327 320 321 317 313 313
139 95 142 152 152 145 155 154 173 134 118 151 148 143 171 178 160 128 134 128 121 123 124 121 120 120 118 112 103 95 74 37 12 351 345 340 335 330 324 317 317 317 318 319
99 128 100 99 84 136 150 148 152 135 147 134 172 155 181 158 148 128 127 120 116 114 122 120 117 114 106 96 74 45 20 3 354 341 338 332 315 309 306 306 310 315 317 319
0 89 59 33 41 44 71 165 157 112 114 81 120 88 129 118 132 121 118 115 109 111 122 119 116 113 101 83 58 21 350 334 330 327 326 316 304 302 304 310 314 318 323 328
54 52 75 287 16 360 89 334 107 98 143 138 145 157 128 118 92 100 104 103 102 112 116 112 105 96 78 50 24 352 342 327 317 313 304 299 300 305 311 315 318 323 332 336
132 97 82 138 91 177 313 256 118 92 82 105 113 131 121 105 90 86 102 117 112 112 107 100 83 58 30 357 331 325 319 316 313 309 305 304 305 308 310 319 332 338 348 360
113 116 107 137 113 101 91 146 121 117 58 122 122 116 118 112 93 63 88 106 108 106 95 83 56 9 343 323 323 321 321 319 315 308 305 309 311 319 338 11 5 357 3 0
159 237 205 106 109 184 129 111 116 89 69 138 123 136 143 144 121 119 108 105 102 97 81 23 338 325 318 321 324 324 323 323 321 322 326 321 348 342 11 33 10 355 5 9
162 174 101 89 97 51 149 136 294 112 165 127 139 136 117 81 102 133 125 106 88 53 15 347 332 334 335 332 333 334 340 342 344 332 318 311 323 320 163 19 338 5 17 12
118 108 89 91 100 134 36 331 156 132 105 114 107 115 106 113 117 119 113 91 51 1 341 333 335 339 347 350 351 357 357 351 332 319 308 302 296 300 194 311 346 13 15 3
54 350 99 49 36 49 74 93 101 117 115 116 121 120 127 123 120 117 102 74 44 26 16 9 4 5 7 7 0 359 355 352 342 330 306 294 286 274 201 220 354 18 31 356
72 40 100 91 48 84 96 91 95 113 116 121 121 122 124 118 115 106 91 72 60 46 35 31 30 27 22 15 9 360 352 342 339 327 303 280 283 195 195 280 26 39 29 356
35 89 100 97 101 84 74 94 110 109 113 114 113 113 113 117 108 102 90 77 66 56 47 41 40 33 19 10 10 5 355 349 355 347 320 265 244 185 177 172 101 75 40 354
7 127 112 117 93 110 106 105 116 115 113 114 113 110 106 105 106 103 93 83 71 63 48 45 36 31 19 22 19 14 9 11 9 4 357 333 224 195 183 161 178 111 280 310
Wind_Speed_850mb
42 22 45 42 34 15 12 13 10 9 14 11 12 11 21 26 25 18 33 30 37 39 44 67 63 68 79 71 65 63 59 52 57 70 76 69 74 71 67 66 57 74 75 72
18 55 33 31 31 32 30 21 10 8 10 6 14 18 20 14 12 29 45 44 43 46 48 57 62 59 65 63 61 63 60 59 60 68 69 71 71 60 54 53 64 79 85 81
48 10 36 34 39 38 35 28 12 11 8 3 3 17 10 15 13 32 41 53 49 51 53 64 69 65 60 59 59 59 64 58 51 51 62 70 65 61 61 66 69 78 81 84
32 43 49 49 43 32 39 19 16 17 4 4 7 9 12 11 13 3 30 42 53 50 46 60 73 71 69 69 65 64 64 65 67 70 68 62 52 57 49 55 64 70 74 75
29 39 40 47 48 30 24 25 21 18 10 1 3 4 14 7 8 7 9 22 36 41 52 59 69 70 72 75 75 69 63 57 55 52 52 53 53 48 29 27 26 27 36 27
33 43 41 29 34 39 14 14 14 6 9 9 11 13 12 3 10 6 8 26 18 9 19 32 54 68 79 81 78 64 57 46 41 39 41 41 40 36 32 29 29 32 33 43
39 36 35 39 33 29 30 19 5 4 7 10 18 10 4 15 15 8 16 29 24 16 13 17 34 54 66 62 62 57 48 37 25 22 24 21 20 19 16 20 31 28 31 32
25 34 34 32 30 15 36 19 11 11 10 9 14 11 4 8 8 29 45 42 37 36 36 38 35 46 54 53 51 47 42 37 28 23 18 11 10 11 5 9 19 20 28 33
15 11 32 28 16 38 20 26 19 8 2 11 11 6 8 9 20 27 36 48 45 50 55 58 55 58 60 58 53 46 41 38 29 20 15 10 8 9 9 13 14 19 19 14
7 8 16 45 37 26 20 20 13 4 8 8 2 7 10 5 15 18 21 36 46 61 73 74 74 70 63 55 47 38 33 28 24 19 16 13 8 2 4 8 15 23 19 19
10 4 6 14 14 43 16 16 9 13 5 10 8 5 9 8 8 25 20 39 56 63 60 59 60 58 55 50 47 44 39 36 32 25 18 12 10 11 12 9 9 9 14 21
15 5 7 10 11 27 11 13 12 10 7 6 9 4 2 8 7 18 31 53 62 66 66 66 63 63 59 55 47 42 36 30 26 19 14 12 9 10 8 12 12 18 24 32
22 7 9 7 7 2 10 10 12 12 7 9 11 7 5 11 9 22 41 48 59 66 68 69 64 56 48 43 36 29 23 19 17 16 15 14 10 10 12 19 25 28 34 38
20 6 7 10 14 9 10 12 23 14 9 10 6 19 15 18 17 17 40 55 58 69 67 62 55 47 41 35 28 22 17 17 18 15 14 14 15 17 20 24 29 33 36 38
6 8 1 11 13 8 8 22 19 12 16 13 17 26 31 24 16 19 49 55 60 55 60 53 46 39 31 26 22 21 21 18 15 15 15 15 17 22 28 34 39 42 39 36
10 6 3 9 15 13 9 15 26 10 14 21 34 19 19 28 28 41 47 51 52 49 51 43 35 27 20 17 12 11 10 14 20 25 25 23 25 29 34 38 41 40 37 34
6 5 7 2 8 13 8 5 12 10 5 39 15 19 33 26 29 37 49 50 47 42 41 36 28 22 17 13 12 13 16 21 25 26 27 29 31 33 35 34 30 28 29 35
7 4 4 10 11 5 4 8 13 31 14 32 43 38 38 48 57 51 43 56 47 38 30 24 17 12 11 13 16 19 22 27 29 28 28 28 28 26 26 23 20 23 26 26
3 6 6 9 5 8 11 10 4 23 18 17 49 45 57 68 72 46 35 39 39 29 21 15 10 11 14 18 23 28 32 32 29 26 23 18 15 18 20 11 15 21 21 22
13 9 1 5 10 7 4 12 47 22 10 9 37 42 47 52 14 7 20 28 27 18 11 7 12 17 21 26 30 32 29 24 19 16 10 6 9 11 7 9 13 13 16 23
9 5 7 9 7 7 12 24 10 7 15 33 37 36 24 10 23 45 28 23 14 11 11 15 20 27 32 31 27 22 20 17 17 16 12 8 8 11 2 5 5 11 16 24
6 6 5 6 7 9 2 14 7 27 40 54 40 55 70 63 52 38 23 14 8 11 16 22 25 26 26 24 22 20 20 18 18 15 13 10 8 9 6 1 4 8 16 23
5 2 8 11 4 6 41 47 50 68 63 50 61 58 66 59 42 28 20 14 14 17 19 21 23 24 24 23 21 22 21 19 18 15 13 10 9 5 9 2 5 8 16 22
9 4 12 8 18 34 60 59 63 68 74 65 62 56 46 48 33 27 23 23 23 23 25 24 24 25 26 25 23 22 22 21 23 14 10 8 6 7 9 1 4 11 12 19
5 9 18 36 32 61 53 63 78 72 69 66 57 50 47 41 36 30 29 27 26 26 26 25 24 23 22 22 19 19 22 23 19 12 7 6 4 8 6 3 5 11 10 14
13 11 8 16 28 51 40 51 67 74 66 60 60 54 43 37 39 32 31 26 24 23 21 20 19 20 19 18 18 18 25 24 20 16 10 2 2 6 7 7 6 1 3 11
Wind_Direction_850mb
185 199 207 196 201 184 218 226 210 190 239 201 244 231 256 260 250 236 239 227 215 212 220 211 214 218 221 227 229 229 230 226 221 219 221 229 226 236 254 239 230 227 236 240
168 218 201 198 197 206 229 237 213 269 264 175 278 268 257 261 233 235 243 238 219 213 209 211 215 220 216 215 218 219 223 226 225 226 235 235 243 257 246 234 239 242 241 235
200 211 191 199 199 202 213 216 167 200 11 275 356 305 295 274 225 242 253 253 248 215 211 209 210 212 219 221 216 212 216 220 224 229 237 240 246 249 250 250 252 250 244 247
221 232 187 193 211 191 213 177 193 233 123 217 115 271 304 260 230 208 249 255 255 245 222 213 212 212 217 213 215 208 215 222 226 229 230 230 239 252 262 267 262 261 264 266
200 184 209 203 202 201 210 178 195 222 176 304 244 42 271 301 116 204 250 252 249 248 242 224 210 216 219 213 209 210 210 214 219 223 226 235 237 238 234 252 264 263 246 268
207 185 204 211 203 201 137 161 200 169 117 241 205 159 281 357 314 201 85 37 21 304 256 227 216 216 213 212 208 207 210 215 214 215 219 223 235 230 231 257 274 274 257 247
197 217 193 187 188 191 177 155 174 195 191 211 157 151 240 309 304 310 98 65 60 70 98 141 177 197 202 197 202 203 207 201 196 198 206 212 226 245 255 260 281 272 266 252
193 208 208 187 202 169 190 154 163 170 152 158 143 198 247 311 21 75 90 92 91 94 106 111 127 154 164 166 169 173 173 168 170 172 169 159 140 118 89 344 318 311 274 259
159 240 193 213 188 170 186 197 200 66 286 110 145 114 106 49 52 62 74 82 85 102 107 109 117 123 128 128 128 134 138 131 123 104 84 65 47 51 33 327 283 243 236 229
174 162 229 204 216 236 167 167 178 120 178 126 156 128 147 101 91 87 84 91 94 104 105 106 107 108 110 112 113 116 119 118 112 113 103 94 99 117 238 224 235 237 256 264
198 145 224 186 157 206 205 186 163 136 148 148 133 187 167 169 152 129 121 113 113 110 107 108 109 109 109 111 109 104 102 101 97 93 87 78 49 28 4 329 287 283 277 284
189 165 134 158 110 175 145 198 157 155 210 55 116 231 99 153 132 134 123 123 119 118 118 119 117 116 112 108 106 101 96 90 85 78 60 44 22 357 323 311 305 303 303 301
173 212 99 91 79 121 149 188 136 112 108 173 118 184 154 135 138 125 126 124 119 121 123 119 117 113 111 108 103 95 86 74 54 29 10 360 347 337 327 320 321 317 313 313
139 95 142 152 152 145 155 154 173 134 118 151 148 143 171 178 160 128 134 128 121 123 124 121 120 120 118 112 103 95 74 37 12 351 345 340 335 330 324 317 317 317 318 319
99 128 100 99 84 136 150 148 152 135 147 134 172 155 181 158 148 128 127 120 116 114 122 120 117 114 106 96 74 45 20 3 354 341 338 332 315 309 306 306 310 315 317 319
0 89 59 33 41 44 71 165 157 112 114 81 120 88 129 118 132 121 118 115 109 111 122 119 116 113 101 83 58 21 350 334 330 327 326 316 304 302 304 310 314 318 323 328
54 52 75 287 16 360 89 334 107 98 143 138 145 157 128 118 92 100 104 103 102 112 116 112 105 96 78 50 24 352 342 327 317 313 304 299 300 305 311 315 318 323 332 336
132 97 82 138 91 177 313 256 118 92 82 105 113 131 121 105 90 86 102 117 112 112 107 100 83 58 30 357 331 325 319 316 313 309 305 304 305 308 310 319 332 338 348 360
113 116 107 137 113 101 91 146 121 117 58 122 122 116 118 112 93 63 88 106 108 106 95 83 56 9 343 323 323 321 321 319 315 308 305 309 311 319 338 11 5 357 3 0
159 237 205 106 109 184 129 111 116 89 69 138 123 136 143 144 121 119 108 105 102 97 81 23 338 325 318 321 324 324 323 323 321 322 326 321 348 342 11 33 10 355 5 9
162 174 101 89 97 51 149 136 294 112 165 127 139 136 117 81 102 133 125 106 88 53 15 347 332 334 335 332 333 334 340 342 344 332 318 311 323 320 163 19 338 5 17 12
118 108 89 91 100 134 36 331 156 132 105 114 107 115 106 113 117 119 113 91 51 1 341 333 335 339 347 350 351 357 357 351 332 319 308 302 296 300 194 311 346 13 15 3
54 350 99 49 36 49 74 93 101 117 115 116 121 120 127 123 120 117 102 74 44 26 16 9 4 5 7 7 0 359 355 352 342 330 306 294 286 274 201 220 354 18 31 356
72 40 100 91 48 84 96 91 95 113 116 121 121 122 124 118 115 106 91 72 60 46 35 31 30 27 22 15 9 360 352 342 339 327 303 280 283 195 195 280 26 39 29 356
35 89 100 97 101 84 74 94 110 109 113 114 113 113 113 117 108 102 90 77 66 56 47 41 40 33 19 10 10 5 355 349 355 347 320 265 244 185 177 172 101 75 40 354
7 127 112 117 93 110 106 105 116 115 113 114 113 110 106 105 106 103 93 83 71 63 48 45 36 31 19 22 19 14 9 11 9 4 357 333 224 195 183 161 178 111 280 310